Temperature
23 23 22 22 24 26 27 28 28 28 28 27 27 26 25 25 24 22 22 21 21 20 20 20 20 19 19 19 19 19 19 19 19 19 19 19 19 18 18 18 18 18 18 18 18 18 18 18 18
23 22 22 24 25 27 27 28 28 28 28 27 26 26 25 24 23 22 21 21 21 20 20 20 20 19 19 19 19 19 19 19 19 19 19 19 19 19 18 18 18 18 18 18 18 18 18 18 18
23 23 25 26 27 28 28 28 28 28 28 27 26 25 24 23 22 21 21 21 21 20 20 20 20 19 19 19 19 19 19 19 19 19 19 19 19 19 18 18 18 18 18 18 18 18 18 18 18
23 25 26 28 28 29 29 29 29 29 28 27 26 25 23 22 22 22 21 21 21 20 20 20 20 19 19 19 19 19 19 19 19 19 19 19 19 18 18 18 18 18 18 18 18 18 18 18 18
24 26 27 28 29 30 30 30 29 29 28 27 26 24 23 22 22 22 22 21 21 20 20 20 20 20 19 19 19 19 19 19 19 19 19 19 18 18 18 18 19 19 18 18 18 18 18 18 18
26 27 28 29 29 30 30 30 29 29 28 27 26 24 23 22 22 22 22 22 21 21 20 20 20 20 19 19 19 19 19 19 19 19 19 19 19 19 18 19 19 18 19 19 18 18 18 18 19
27 28 29 30 30 30 30 30 29 29 28 27 26 25 23 22 22 22 22 22 21 21 20 20 20 19 19 19 19 19 19 19 19 19 19 19 19 19 18 19 19 19 19 19 18 18 18 18 19
30 30 30 30 30 30 30 30 29 28 28 27 26 25 24 23 22 22 22 22 21 21 21 20 20 20 19 19 19 19 19 19 19 19 19 19 19 19 18 19 19 19 19 19 19 19 19 19 19
31 30 30 31 30 30 31 30 29 28 27 27 26 25 24 23 23 22 22 22 21 21 21 21 20 20 19 19 19 19 19 19 19 19 19 19 18 18 18 18 18 18 19 19 19 19 19 19 19
32 30 31 32 32 31 31 30 29 29 28 27 26 25 24 23 23 23 22 22 22 21 21 21 21 20 20 19 19 19 19 19 19 19 19 18 18 18 18 18 18 18 19 19 19 18 18 18 18
33 32 32 32 32 31 31 30 30 29 28 27 26 25 24 24 23 23 23 22 22 22 21 21 21 20 20 20 19 19 19 19 19 19 19 18 18 18 18 18 18 18 18 18 18 18 18 18 18
33 33 33 33 32 32 31 31 30 29 28 27 26 25 25 24 24 23 23 22 22 22 21 21 21 20 20 20 20 19 19 19 19 19 19 19 18 18 18 18 18 18 18 18 18 18 18 18 18
33 33 33 33 32 32 31 30 30 29 28 27 26 25 25 24 24 24 23 22 22 22 22 21 21 20 20 20 20 19 19 19 19 19 19 19 19 19 19 19 18 18 18 18 18 18 18 18 18
33 33 33 33 32 32 32 31 30 29 28 27 26 26 25 25 24 23 23 22 22 22 21 21 20 20 20 20 20 19 19 19 19 19 19 19 19 19 19 19 19 19 18 18 18 18 18 18 18
33 33 33 33 33 32 32 30 30 29 28 27 27 26 25 25 24 24 23 22 22 22 21 21 20 20 20 19 20 20 19 19 19 19 19 19 19 19 19 19 19 19 19 18 18 18 18 18 18
33 32 31 32 33 32 31 29 30 29 29 28 27 26 26 25 24 24 23 22 22 21 21 21 20 20 20 19 19 19 20 20 19 19 19 19 19 19 19 19 19 19 19 19 19 18 18 18 18
31 30 31 32 33 33 31 29 30 29 29 28 27 27 26 25 25 24 23 23 22 21 21 20 20 20 19 19 19 19 19 19 19 19 19 19 19 19 19 19 19 19 19 19 19 18 18 18 18
31 31 31 32 33 33 32 30 31 30 30 29 28 27 26 25 25 24 23 23 22 21 20 20 20 20 19 19 19 19 19 19 19 19 19 19 19 19 19 19 19 19 19 19 18 18 18 18 18
33 32 32 33 34 33 32 31 31 31 30 30 28 28 27 26 25 24 23 23 22 21 20 20 20 20 19 19 19 19 19 19 19 19 19 19 19 19 19 19 19 19 19 19 19 19 18 18 18
33 32 32 33 33 33 32 31 31 31 31 30 29 28 27 26 25 24 23 23 22 21 20 20 20 20 19 19 19 19 19 19 19 19 19 19 19 19 19 19 19 19 19 19 19 18 18 18 18
33 32 32 32 33 33 32 30 30 31 31 30 29 29 27 27 25 24 23 23 22 21 21 20 20 20 20 19 19 19 19 19 19 19 19 19 19 19 19 19 19 18 18 19 19 19 19 19 19
33 34 33 33 32 31 32 29 30 30 31 31 30 29 28 27 26 25 24 23 22 22 21 20 20 20 20 19 19 19 19 19 19 19 19 19 19 19 19 19 19 18 18 19 19 19 18 18 18
34 34 34 34 32 32 32 30 30 30 30 30 30 29 29 28 27 25 24 23 23 22 21 21 20 20 20 19 19 19 19 19 19 19 19 19 19 18 18 18 18 18 18 18 18 18 18 18 18
34 34 34 33 32 30 32 31 29 30 29 30 30 30 29 28 27 26 25 24 23 22 22 21 20 20 20 20 19 19 19 19 19 19 19 19 19 18 18 18 18 18 18 18 18 18 18 18 18
34 32 31 30 30 30 32 32 30 31 32 31 31 30 29 28 27 26 25 24 23 22 22 21 21 20 20 20 19 19 19 19 19 19 19 19 19 19 19 19 19 18 18 18 18 18 18 18 18
33 33 31 30 30 30 31 31 32 33 33 32 31 31 30 29 28 26 25 24 23 23 22 21 21 21 20 20 20 19 19 19 19 19 19 19 19 19 19 19 19 18 18 18 18 18 18 18 18
33 33 34 32 31 31 31 32 33 33 33 33 32 31 30 29 28 27 26 25 24 23 22 22 21 21 20 20 19 19 19 19 19 19 19 19 19 19 19 18 18 18 18 18 18 18 18 18 18
34 33 33 32 30 30 31 31 31 32 32 32 32 31 30 29 29 27 26 25 25 24 23 22 21 21 20 20 20 19 19 19 19 19 19 19 19 19 19 18 18 18 18 18 18 18 18 18 18
33 33 32 32 32 31 30 30 32 31 32 32 32 31 30 29 29 28 27 26 25 24 23 22 21 21 20 20 20 19 19 19 19 19 19 19 19 19 18 18 18 18 18 18 18 18 18 18 18
34 33 33 31 31 31 31 31 33 33 32 32 32 31 30 29 29 28 27 26 25 24 23 22 21 21 20 20 20 19 19 19 19 19 19 19 19 19 18 18 18 18 18 18 18 18 18 18 18
Wind_Speed
10 11 9 5 4 1 10 11 11 12 11 10 10 10 13 11 8 7 6 9 10 12 12 12 11 13 12 12 12 12 12 12 13 13 13 13 13 14 14 14 14 14 14 14 14 13 13 13 13
9 11 7 4 2 5 11 12 12 11 9 9 11 13 13 12 11 8 7 8 11 12 12 12 13 13 13 12 12 12 12 12 12 12 12 13 13 13 14 14 14 14 15 14 14 13 13 13 13
11 12 5 3 4 9 10 10 9 10 9 10 11 12 10 9 9 7 7 9 12 12 13 14 15 14 13 12 12 11 11 11 12 12 12 13 13 13 13 14 14 14 14 14 14 13 13 13 12
6 6 4 0 10 12 11 10 9 10 11 11 11 10 10 9 7 9 9 10 12 12 14 15 15 14 13 13 12 11 11 11 11 11 12 12 13 13 13 13 14 14 13 13 13 13 12 12 11
7 3 2 5 12 13 12 10 10 11 12 14 15 12 11 10 12 11 9 10 11 11 14 15 15 14 13 12 12 11 10 10 10 11 11 12 12 12 12 12 13 13 13 12 12 12 11 10 9
2 3 1 8 12 13 11 10 11 13 13 13 14 12 10 10 11 10 9 8 9 11 14 15 15 15 13 12 11 10 10 9 11 11 11 11 12 12 12 12 12 12 12 12 12 11 10 8 7
5 4 4 9 12 12 11 10 12 12 12 11 12 11 9 10 9 9 9 8 9 10 13 13 13 13 13 12 11 10 9 10 10 10 10 10 11 12 12 11 11 11 11 10 10 9 9 7 6
5 2 6 8 11 12 11 11 12 12 11 9 9 9 9 10 10 9 9 9 9 9 10 10 12 12 12 12 11 10 9 10 10 10 10 10 11 11 11 11 11 11 10 10 9 8 8 6 5
4 3 7 9 10 10 10 12 12 11 11 12 12 14 13 12 11 10 9 9 8 8 7 8 9 10 10 11 11 10 9 8 9 9 10 9 8 9 10 10 11 11 10 9 8 7 7 6 5
2 6 10 9 10 10 10 11 10 9 12 13 14 15 13 11 10 9 9 9 8 7 7 7 7 7 8 8 9 8 8 8 6 6 8 7 6 7 9 11 11 10 9 8 8 8 7 6 5
6 8 8 9 11 11 10 9 9 11 11 12 13 13 12 11 9 9 9 9 8 7 7 8 7 6 6 5 6 5 5 7 7 6 6 6 6 6 7 7 9 8 8 6 7 8 6 6 4
6 7 8 10 10 10 10 10 12 13 11 13 14 12 11 10 9 9 9 9 9 7 7 7 8 7 6 4 4 4 4 4 5 6 5 5 3 3 4 3 5 6 5 5 4 4 4 4 4
6 7 8 9 9 10 11 12 12 13 13 14 14 12 11 10 10 9 9 9 8 7 7 8 7 7 6 4 1 4 3 3 5 5 4 4 4 3 3 2 2 4 5 5 3 3 2 2 2
5 5 6 7 9 8 10 10 11 12 13 13 12 11 10 10 10 9 9 8 7 6 7 8 8 7 6 4 2 2 3 3 5 5 6 5 4 4 3 3 2 2 3 4 3 2 2 2 2
3 3 4 5 6 7 8 8 10 12 12 12 11 10 10 10 9 9 9 8 7 7 7 6 8 7 5 4 2 3 3 5 4 5 6 5 5 4 3 3 3 2 4 5 4 3 2 2 3
2 3 3 3 4 6 5 7 8 9 10 11 10 10 10 9 9 9 10 8 8 7 6 4 6 8 6 3 1 2 2 3 4 5 6 5 5 4 3 3 2 3 4 3 3 2 2 2 2
4 3 3 4 4 6 5 6 8 10 10 10 10 10 10 10 9 9 10 9 9 7 6 5 6 7 5 3 2 2 3 3 3 5 5 4 4 4 3 2 2 3 2 2 2 3 2 2 1
4 2 3 3 4 5 6 8 9 9 10 11 10 11 10 10 10 9 9 10 9 8 6 6 6 6 4 3 2 2 3 3 3 4 4 4 4 3 3 3 3 2 2 1 2 3 2 2 1
5 3 2 1 2 2 5 8 8 8 9 11 11 11 11 10 11 10 9 10 9 8 7 6 5 5 3 3 2 2 2 2 3 3 4 4 4 4 3 2 3 2 3 2 3 2 2 2 2
4 4 3 2 3 2 3 7 8 8 9 9 10 11 11 11 12 10 9 9 9 8 7 6 5 5 3 3 1 1 1 1 3 3 4 3 4 3 4 3 2 2 3 2 2 2 1 1 2
5 5 4 4 2 3 2 3 7 9 8 10 10 11 12 12 13 12 10 9 9 9 8 7 6 5 4 3 2 2 2 1 2 4 3 2 3 3 3 4 2 2 3 3 2 2 2 1 0
6 5 6 7 6 5 5 4 6 8 10 11 11 12 13 13 14 13 12 10 9 9 9 7 7 5 5 3 2 2 2 2 2 2 3 3 2 2 3 3 2 1 2 3 2 2 1 2 1
6 7 9 10 7 6 6 4 5 7 9 10 11 12 12 13 14 14 13 11 10 10 9 8 7 6 5 3 3 2 2 2 2 3 4 3 2 2 3 3 1 1 1 2 1 2 1 1 1
6 8 10 10 7 8 7 4 2 5 8 9 10 12 12 13 14 14 13 11 10 10 10 10 9 7 6 4 3 2 2 2 2 2 3 2 2 2 3 3 2 1 0 1 2 1 2 1 0
8 8 6 6 6 6 5 3 4 6 9 10 11 12 13 13 13 13 13 13 11 11 10 10 10 8 7 6 4 3 3 2 2 1 2 1 2 2 2 3 2 1 1 1 2 2 1 1 1
10 10 8 7 5 4 5 3 5 8 8 9 10 10 13 14 14 14 13 13 12 11 10 10 11 9 8 7 5 4 4 2 2 2 1 1 1 2 3 3 3 2 1 1 1 1 1 1 1
10 10 11 10 9 6 4 4 6 8 8 10 10 10 11 13 14 14 14 14 14 13 11 11 11 10 8 8 6 5 4 3 2 2 2 1 1 2 4 3 2 2 1 1 1 1 1 1 0
10 9 7 8 6 6 4 4 4 6 8 9 9 9 9 11 13 14 14 13 12 12 11 11 11 10 9 8 7 7 5 4 3 3 2 1 1 2 3 2 2 2 1 1 0 0 1 1 0
11 11 9 8 8 7 5 1 3 4 5 8 10 10 10 10 11 12 12 12 12 11 12 11 11 10 9 8 7 5 6 5 4 3 3 2 2 2 2 2 2 2 1 1 0 0 1 1 0
12 12 11 9 7 8 7 3 3 4 5 5 6 7 8 9 10 11 12 12 11 11 11 10 10 11 10 8 7 6 6 5 5 4 3 3 2 2 2 2 2 2 2 1 1 1 1 1 1
Wind_Direction
185 206 216 239 253 242 59 59 54 52 53 51 49 55 58 54 63 87 93 91 99 106 108 106 103 107 103 98 96 97 96 93 92 93 94 94 96 97 99 102 104 107 112 112 112 112 108 109 115
205 216 224 250 272 62 64 58 58 61 62 63 61 63 67 67 78 92 95 96 104 105 105 102 108 108 104 100 98 98 98 95 95 96 97 98 98 100 99 101 102 104 109 109 109 111 109 108 114
237 241 244 233 52 64 67 66 73 76 71 73 73 64 64 72 79 100 114 113 104 102 106 107 110 109 106 103 101 98 98 99 100 100 100 100 100 102 102 102 102 104 108 107 107 108 106 107 112
245 245 251 71 68 70 71 71 76 74 70 69 76 72 68 72 94 112 118 110 108 112 111 114 114 111 108 104 101 99 99 101 104 105 104 104 104 105 104 104 105 107 109 109 109 108 109 109 113
249 274 257 71 72 71 68 70 76 73 71 71 77 83 79 79 98 108 112 112 114 114 114 122 120 117 113 109 107 105 104 105 110 112 110 109 110 110 110 108 108 110 111 111 112 114 114 115 118
252 271 80 74 77 77 72 68 73 75 79 80 85 89 88 99 102 109 107 103 109 116 119 126 127 123 120 117 113 112 112 115 118 117 115 113 113 113 111 112 112 113 114 114 115 119 121 122 126
239 277 57 78 81 78 74 71 71 75 75 81 96 96 104 105 110 111 106 103 108 113 121 129 131 130 128 126 124 123 123 125 128 125 123 121 121 121 120 121 122 122 122 123 125 129 131 133 141
262 356 52 75 83 83 81 75 75 78 77 81 95 101 115 119 123 116 112 113 115 116 119 131 134 137 137 134 137 135 134 134 139 139 137 134 131 132 133 134 137 138 136 136 139 142 144 148 161
281 40 58 67 82 90 92 89 85 88 87 77 79 99 114 124 124 122 115 113 111 112 115 122 126 139 142 138 142 148 147 145 149 150 153 153 145 142 141 137 142 145 147 148 151 155 160 167 183
93 68 66 70 87 93 92 96 105 101 91 90 90 100 115 121 123 121 118 117 114 116 120 116 117 124 132 132 140 151 152 148 156 145 150 162 152 145 135 143 150 153 156 160 167 164 165 186 187
71 78 87 85 87 94 94 95 99 101 98 104 111 115 121 125 123 117 114 115 109 114 117 120 116 120 120 121 137 148 146 146 153 147 149 150 148 136 132 144 152 163 168 169 160 172 184 181 167
88 77 86 88 91 91 90 89 84 87 101 113 118 121 123 126 123 119 116 112 110 107 107 105 111 108 103 107 128 138 138 146 141 150 155 146 142 133 136 143 157 165 167 159 164 168 173 169 165
92 90 93 96 94 93 95 91 94 99 106 114 120 125 129 127 121 115 109 108 108 113 108 98 100 103 104 99 92 110 120 140 134 138 130 134 137 135 136 144 158 161 155 161 164 155 148 129 138
96 108 110 106 105 111 106 108 105 109 118 121 127 130 129 125 121 114 111 108 112 113 102 104 108 108 112 115 99 114 136 127 131 144 143 139 136 141 146 154 160 156 152 152 151 142 135 140 121
127 148 138 126 122 124 114 103 103 119 127 131 132 130 129 128 127 123 122 120 117 109 100 102 112 108 107 114 141 140 147 139 134 128 126 130 129 134 150 154 156 165 164 155 150 159 151 164 153
230 220 156 152 135 131 134 108 120 133 137 138 139 139 135 135 137 130 125 122 114 109 103 99 110 110 104 98 86 82 103 115 121 124 127 130 134 149 159 152 160 169 160 149 149 144 140 139 129
225 226 191 164 159 151 139 125 142 157 149 145 148 146 148 147 141 135 133 128 119 113 113 104 90 102 107 102 93 106 95 92 112 119 116 132 144 146 157 140 141 154 140 154 152 124 141 135 132
237 181 224 167 154 140 126 134 151 161 156 152 154 156 157 152 144 138 135 130 122 117 113 110 104 100 112 110 93 96 96 114 111 108 123 135 136 139 141 137 141 134 114 114 107 122 142 154 170
257 245 233 202 165 152 132 141 157 166 166 157 161 162 156 154 146 143 144 138 133 127 124 121 113 110 117 111 114 112 115 112 112 116 120 129 128 124 132 101 126 127 118 124 122 136 155 144 122
260 272 258 241 168 208 148 145 157 174 174 163 161 159 160 157 150 149 153 148 142 137 135 129 128 127 129 121 121 121 112 118 113 101 105 121 123 130 136 119 133 118 127 131 135 150 138 143 146
250 267 265 254 216 231 180 162 169 178 173 165 165 163 166 165 158 158 163 159 153 149 150 149 137 137 133 129 135 103 98 68 92 107 114 113 121 128 107 118 126 127 145 145 164 162 158 162 139
257 255 260 257 251 238 216 208 191 185 173 172 172 172 170 168 164 164 167 168 163 157 154 138 138 138 136 139 132 134 125 102 91 107 116 116 115 112 102 113 116 111 113 139 184 162 169 154 178
270 266 260 262 255 258 230 235 193 170 175 180 179 175 171 170 167 166 168 168 167 163 157 149 142 138 136 145 142 138 107 116 110 104 117 125 124 126 121 123 124 112 125 143 124 121 142 125 159
264 271 264 262 259 255 237 223 190 169 185 183 187 178 173 169 166 165 165 163 167 165 161 157 148 146 150 156 151 152 135 93 91 88 103 142 145 150 144 139 126 121 140 129 131 143 140 115 57
246 256 261 256 243 251 252 205 168 167 171 173 177 174 172 168 165 166 165 164 167 168 166 159 151 154 160 165 164 163 150 135 137 155 143 184 147 146 150 125 127 129 130 137 148 155 153 150 163
244 249 259 274 265 259 254 197 152 147 151 156 156 162 168 169 167 168 167 166 169 170 166 161 156 161 167 171 169 167 158 178 176 185 165 170 135 122 133 129 131 134 145 132 127 138 173 160 177
241 253 270 273 270 267 240 175 155 157 156 147 150 162 166 168 169 170 170 173 174 173 169 165 159 162 169 174 169 171 178 198 177 155 195 161 130 147 120 126 127 120 96 38 37 99 57 88 171
245 258 267 270 279 274 262 216 180 159 155 149 151 155 163 165 168 170 171 173 173 171 165 165 162 164 168 172 177 179 180 184 178 171 168 165 132 100 126 132 137 140 139 151 276 145 118 122 254
235 246 257 272 277 283 277 268 139 156 156 152 154 160 167 168 168 168 167 168 166 166 168 168 163 164 170 174 176 171 169 179 181 175 166 170 161 142 144 152 158 159 150 139 102 188 170 169 217
247 247 249 251 260 270 277 253 144 145 131 134 147 153 154 164 168 163 160 162 165 168 168 166 167 170 172 171 168 170 168 174 179 172 160 159 160 151 154 169 172 178 154 147 169 264 85 98 90
Height
1476 1477 1477 1480 1479 1477 1474 1469 1466 1468 1469 1472 1472 1472 1476 1480 1485 1495 1495 1493 1494 1494 1494 1495 1495 1496 1498 1499 1500 1500 1501 1502 1502 1503 1504 1505 1505 1506 1507 1508 1509 1510 1512 1513 1514 1515 1516 1517 1519
1476 1477 1480 1479 1477 1481 1478 1470 1471 1471 1473 1473 1474 1476 1479 1484 1488 1492 1494 1495 1495 1496 1496 1497 1497 1498 1499 1500 1501 1502 1503 1504 1505 1505 1506 1507 1508 1509 1510 1511 1512 1512 1514 1515 1516 1517 1518 1519 1521
1477 1479 1479 1475 1473 1477 1477 1470 1470 1471 1472 1473 1477 1480 1484 1488 1491 1494 1496 1496 1497 1497 1498 1499 1499 1500 1501 1502 1503 1504 1505 1506 1507 1508 1509 1510 1510 1512 1513 1513 1514 1515 1516 1518 1519 1520 1520 1522 1523
1478 1478 1477 1472 1472 1468 1468 1469 1469 1471 1473 1475 1477 1483 1489 1491 1493 1495 1497 1498 1499 1500 1500 1501 1501 1502 1503 1504 1505 1506 1507 1508 1509 1510 1511 1512 1513 1514 1515 1516 1517 1518 1519 1520 1522 1523 1524 1525 1526
1480 1477 1476 1472 1470 1466 1466 1468 1470 1472 1475 1478 1481 1487 1492 1494 1495 1497 1498 1500 1501 1502 1502 1503 1504 1504 1505 1506 1507 1508 1509 1509 1510 1512 1513 1514 1515 1516 1517 1518 1519 1520 1522 1523 1524 1525 1526 1528 1529
1480 1474 1476 1476 1471 1468 1469 1470 1471 1474 1478 1481 1485 1489 1495 1497 1498 1499 1500 1501 1502 1503 1504 1504 1505 1506 1507 1508 1509 1510 1511 1511 1512 1514 1515 1516 1517 1518 1519 1520 1522 1523 1524 1526 1527 1528 1529 1530 1532
1477 1472 1472 1471 1472 1472 1471 1472 1474 1476 1479 1483 1486 1491 1496 1499 1500 1501 1502 1503 1504 1505 1506 1506 1507 1508 1509 1510 1511 1512 1513 1513 1514 1516 1517 1518 1519 1520 1521 1523 1524 1525 1526 1528 1529 1530 1532 1533 1534
1469 1467 1471 1469 1473 1475 1472 1474 1477 1480 1483 1485 1486 1491 1497 1500 1501 1502 1504 1505 1506 1507 1508 1508 1509 1509 1510 1511 1512 1514 1514 1515 1516 1517 1519 1520 1521 1523 1524 1525 1526 1527 1529 1530 1531 1533 1534 1535 1536
1466 1470 1474 1471 1472 1473 1473 1476 1480 1482 1485 1487 1489 1493 1497 1501 1502 1504 1505 1507 1508 1509 1509 1510 1511 1511 1513 1513 1514 1515 1516 1517 1518 1519 1520 1521 1523 1524 1525 1527 1528 1529 1530 1532 1533 1534 1535 1536 1538
1465 1472 1472 1467 1468 1471 1474 1476 1480 1483 1486 1490 1493 1497 1500 1502 1503 1505 1506 1508 1509 1510 1511 1511 1512 1513 1514 1515 1515 1516 1517 1518 1519 1520 1522 1523 1524 1526 1527 1528 1529 1530 1532 1533 1534 1536 1536 1537 1539
1464 1468 1467 1468 1469 1472 1474 1477 1479 1482 1487 1491 1495 1498 1501 1503 1505 1506 1508 1509 1510 1511 1512 1512 1513 1513 1514 1516 1516 1518 1519 1519 1520 1521 1523 1524 1525 1527 1528 1529 1530 1531 1533 1534 1536 1536 1537 1538 1540
1466 1466 1467 1469 1471 1473 1475 1478 1481 1485 1490 1493 1496 1499 1502 1504 1506 1507 1509 1510 1511 1512 1513 1513 1513 1514 1514 1516 1517 1518 1519 1520 1521 1522 1524 1525 1526 1527 1529 1530 1531 1532 1534 1535 1536 1537 1538 1540 1541
1467 1468 1469 1470 1472 1474 1477 1480 1484 1487 1492 1495 1498 1501 1503 1505 1507 1509 1510 1512 1513 1513 1514 1514 1514 1514 1515 1516 1518 1519 1520 1521 1522 1523 1524 1525 1526 1527 1529 1530 1532 1533 1534 1535 1537 1538 1539 1540 1541
1468 1469 1470 1471 1473 1475 1477 1481 1484 1489 1493 1497 1499 1501 1504 1506 1508 1510 1512 1513 1514 1515 1515 1515 1515 1516 1516 1517 1518 1519 1520 1521 1522 1523 1524 1525 1526 1527 1529 1531 1532 1533 1535 1536 1537 1538 1539 1540 1540
1469 1470 1471 1471 1472 1474 1478 1483 1486 1490 1493 1496 1500 1502 1505 1507 1509 1511 1513 1514 1515 1516 1516 1516 1517 1517 1517 1518 1518 1519 1521 1521 1522 1524 1525 1526 1527 1528 1529 1531 1532 1533 1535 1536 1537 1538 1539 1540 1541
1471 1474 1480 1473 1471 1473 1480 1492 1487 1491 1493 1496 1499 1503 1505 1508 1510 1512 1513 1515 1516 1516 1517 1518 1518 1518 1518 1519 1519 1520 1521 1522 1523 1524 1525 1526 1527 1528 1530 1531 1532 1533 1535 1536 1537 1538 1539 1540 1540
1476 1484 1482 1474 1467 1470 1477 1488 1485 1488 1491 1495 1498 1502 1505 1508 1510 1512 1514 1515 1516 1517 1518 1519 1519 1519 1520 1520 1520 1521 1522 1523 1524 1525 1526 1527 1527 1528 1530 1531 1533 1534 1535 1536 1537 1538 1538 1539 1540
1483 1482 1479 1475 1467 1467 1476 1482 1483 1485 1488 1492 1497 1501 1503 1507 1510 1512 1514 1516 1517 1518 1519 1520 1520 1520 1521 1521 1521 1522 1523 1524 1525 1526 1526 1527 1528 1529 1530 1531 1533 1534 1535 1536 1537 1538 1539 1539 1540
1468 1472 1476 1471 1464 1468 1474 1479 1482 1483 1485 1489 1494 1498 1502 1506 1509 1512 1514 1516 1517 1518 1519 1520 1521 1521 1522 1522 1523 1524 1524 1525 1526 1526 1527 1528 1528 1529 1530 1532 1533 1534 1535 1536 1537 1538 1539 1540 1540
1468 1474 1476 1469 1464 1467 1473 1477 1479 1480 1482 1486 1490 1495 1500 1504 1508 1511 1514 1516 1517 1518 1519 1520 1521 1522 1523 1523 1524 1525 1526 1526 1527 1527 1527 1528 1529 1530 1531 1531 1533 1534 1535 1535 1536 1537 1538 1540 1540
1467 1472 1472 1472 1467 1467 1475 1483 1481 1478 1481 1484 1488 1492 1497 1502 1506 1510 1513 1515 1517 1518 1519 1520 1521 1522 1523 1524 1525 1526 1526 1527 1528 1528 1528 1529 1530 1530 1531 1532 1533 1534 1534 1535 1536 1537 1538 1539 1540
1471 1462 1464 1466 1472 1478 1476 1497 1484 1480 1479 1482 1486 1490 1494 1499 1503 1508 1511 1514 1516 1517 1519 1520 1521 1522 1523 1524 1525 1526 1527 1528 1529 1529 1529 1530 1530 1531 1532 1532 1533 1534 1534 1535 1536 1537 1538 1539 1539
1463 1458 1460 1462 1469 1476 1475 1486 1485 1479 1482 1481 1483 1486 1491 1496 1500 1505 1509 1512 1515 1517 1518 1520 1521 1522 1523 1524 1526 1527 1528 1529 1530 1530 1530 1530 1531 1531 1532 1533 1533 1534 1535 1535 1536 1537 1538 1538 1539
1457 1460 1461 1462 1469 1489 1475 1482 1491 1478 1478 1478 1481 1483 1488 1492 1497 1502 1507 1510 1513 1516 1518 1519 1520 1521 1523 1524 1526 1527 1528 1529 1530 1530 1530 1531 1532 1532 1532 1533 1533 1534 1534 1535 1535 1536 1537 1537 1538
1459 1472 1486 1491 1493 1491 1468 1474 1482 1467 1467 1471 1475 1479 1484 1490 1495 1500 1504 1508 1511 1514 1516 1518 1519 1521 1522 1524 1526 1527 1528 1529 1530 1531 1531 1532 1532 1533 1533 1533 1533 1534 1534 1535 1535 1536 1536 1537 1537
1460 1466 1488 1501 1499 1489 1473 1477 1469 1459 1463 1467 1471 1476 1481 1487 1492 1497 1501 1505 1509 1512 1515 1517 1518 1520 1522 1523 1525 1527 1528 1529 1530 1531 1531 1532 1533 1533 1533 1533 1533 1534 1534 1535 1535 1536 1536 1537 1537
1462 1464 1459 1472 1479 1486 1479 1471 1462 1458 1460 1464 1470 1475 1479 1484 1489 1494 1499 1503 1506 1510 1513 1515 1516 1518 1520 1522 1524 1526 1528 1529 1530 1531 1532 1532 1533 1533 1533 1533 1533 1533 1534 1535 1535 1536 1536 1536 1537
1454 1456 1464 1474 1490 1495 1486 1478 1474 1464 1462 1464 1468 1473 1477 1482 1487 1491 1496 1500 1504 1507 1510 1513 1515 1517 1519 1521 1523 1525 1527 1528 1529 1530 1531 1532 1532 1533 1533 1533 1533 1533 1534 1534 1535 1535 1536 1536 1536
1458 1460 1463 1466 1470 1488 1495 1486 1459 1461 1460 1462 1466 1470 1475 1480 1484 1489 1494 1498 1502 1505 1508 1511 1513 1515 1518 1520 1522 1524 1525 1527 1528 1529 1530 1531 1532 1532 1532 1533 1533 1533 1533 1534 1534 1535 1535 1535 1536
1451 1456 1460 1475 1477 1473 1482 1482 1453 1456 1459 1462 1465 1470 1474 1478 1483 1486 1491 1496 1500 1503 1506 1509 1511 1514 1516 1518 1520 1522 1524 1525 1527 1528 1529 1530 1530 1531 1531 1532 1532 1533 1533 1533 1534 1534 1535 1535 1534